Worcester, MA

4:24 AM EDT on May 25, 2017 (GMT -0400)
Worcester Regional

Weather History for KORH - September, 2012

Change the Weather History Date:

Monday, September 10, 2012

  Actual Average Record
Temperature  
Mean Temperature 58 °F 63 °F  
Max Temperature 66 °F 72 °F 91 °F (1931)
Min Temperature 50 °F 55 °F 35 °F (1938)
Degree Days  
Heating Degree Days 7 3  
Month to date heating degree days 7 25  
Since 1 July heating degree days 9 64  
Cooling Degree Days 0 2  
Month to date cooling degree days 37 24  
Year to date cooling degree days 668 450  
Growing Degree Days 8 (Base 50)    
Moisture  
Dew Point 44 °F    
Average Humidity 59    
Maximum Humidity 77    
Minimum Humidity 40    
Precipitation  
Precipitation 0.00 in 0.12 in 2.35 in (1999)
Month to date precipitation 1.96 1.14  
Year to date precipitation 30.58 32.50  
Sea Level Pressure  
Sea Level Pressure 29.96 in    
Wind  
Wind Speed 11 mph (NNW)    
Max Wind Speed 21 mph    
Max Gust Speed 25 mph    
Visibility 10 miles    
Events      
T = Trace of Precipitation, MM = Missing Value Source: NWS Daily Summary

Daily Weather History Graph

Daily Weather History Graph

Search for Another Location

Airport or City:

Trip Planner

Search our weather history database for the weather conditions in past years. The results will help you decide how hot, cold, wet, or windy it might be!

Date:

Astronomy

Sep. 10, 2012 Rise Set
Actual Time 6:22 AM EDT 7:05 PM EDT
Civil Twilight 5:54 AM EDT 7:33 PM EDT
Nautical Twilight 5:20 AM EDT 8:06 PM EDT
Astronomical Twilight 4:45 AM EDT 8:41 PM EDT
Moon 12:36 AM EDT (9/10) 3:37 PM EDT (9/10)
Length of Visible Light 13h 39m
Length of Day
12h 42m
Waning Crescent, 30% of the Moon is Illuminated
Sep 10
Waning Crescent
Sep 15
New
Sep 22
First Quarter
Sep 29
Full
Oct 8
Last Quarter

Hourly Weather History & Observations

Time (EDT) Temp. Dew Point Humidity Pressure Visibility Wind Dir Wind Speed Gust Speed Precip Events Conditions
12:54 AM 59.0 °F 48.9 °F 69% 29.88 in 10.0 mi NNW 4.6 mph - N/A   Partly Cloudy
1:54 AM 55.9 °F 48.9 °F 77% 29.88 in 10.0 mi NW 4.6 mph - N/A   Clear
2:54 AM 59.0 °F 48.0 °F 67% 29.87 in 10.0 mi NNW 9.2 mph - N/A   Clear
3:54 AM 57.0 °F 48.0 °F 72% 29.88 in 10.0 mi North 9.2 mph - N/A   Clear
4:54 AM 55.9 °F 48.0 °F 75% 29.89 in 10.0 mi North 10.4 mph - N/A   Clear
5:54 AM 55.9 °F 46.0 °F 69% 29.90 in 10.0 mi North 10.4 mph - N/A   Clear
6:54 AM 55.0 °F 45.0 °F 69% 29.92 in 10.0 mi North 9.2 mph - N/A   Scattered Clouds
7:54 AM 55.9 °F 46.0 °F 69% 29.94 in 10.0 mi NNW 13.8 mph - N/A   Clear
8:54 AM 57.9 °F 45.0 °F 62% 29.96 in 10.0 mi NNW 15.0 mph 19.6 mph N/A   Clear
9:54 AM 61.0 °F 43.0 °F 52% 29.97 in 10.0 mi North 15.0 mph 21.9 mph N/A   Clear
10:54 AM 62.1 °F 46.0 °F 56% 29.96 in 10.0 mi WNW 15.0 mph 19.6 mph N/A   Scattered Clouds
11:54 AM 62.1 °F 45.0 °F 53% 29.96 in 10.0 mi NNW 10.4 mph - N/A   Mostly Cloudy
12:54 PM 62.1 °F 46.0 °F 56% 29.96 in 10.0 mi NNW 15.0 mph 21.9 mph N/A   Overcast
1:54 PM 64.0 °F 45.0 °F 50% 29.95 in 10.0 mi NNW 12.7 mph 25.3 mph N/A   Overcast
2:54 PM 64.0 °F 43.0 °F 46% 29.94 in 10.0 mi NNW 15.0 mph 20.7 mph N/A   Overcast
3:54 PM 64.9 °F 43.0 °F 45% 29.95 in 10.0 mi North 11.5 mph 20.7 mph N/A   Mostly Cloudy
4:54 PM 64.0 °F 39.9 °F 41% 29.96 in 10.0 mi NNW 11.5 mph 23.0 mph N/A   Scattered Clouds
5:54 PM 62.1 °F 41.0 °F 46% 29.99 in 10.0 mi NNW 10.4 mph - N/A   Clear
6:54 PM 57.9 °F 41.0 °F 53% 30.01 in 10.0 mi NNW 13.8 mph - N/A   Partly Cloudy
7:54 PM 55.0 °F 41.0 °F 59% 30.04 in 10.0 mi NW 9.2 mph - N/A   Clear
8:54 PM 55.9 °F 39.9 °F 55% 30.06 in 10.0 mi NNW 8.1 mph - N/A   Clear
9:54 PM 51.1 °F 42.1 °F 71% 30.07 in 10.0 mi WNW 5.8 mph - N/A   Clear
10:54 PM 51.1 °F 41.0 °F 68% 30.08 in 10.0 mi NW 10.4 mph - N/A   Clear
11:54 PM 50.0 °F 41.0 °F 71% 30.08 in 10.0 mi NW 16.1 mph - N/A   Clear